Content
SEND FEEDBACK

Daily
Averages
Monthly
Summary
United States of America

PORTLAND - EAST END, MAINE


Home > North America > United States > Maine
Elevation: 70 feet     Latitude: 43 40N     Longitude: 070 15W

WEATHER
 
SELECT A DAY
Number of Records: 209,787;   Date Range: 1/1/95 - 7/7/14
 
SHARE

PRINT THIS DATA

[ ← Previous Day ]
WEATHER ALMANAC - JANUARY 31, 2013
[ Next Day → ]
[ °C ]   °F
Weather ElementAverageHighLow
Temperature46.4 °F54 °F (8:09 am)30 °F (11:51 pm)
Dewpoint36.9 °F52 °F (8:09 am)9 °F (8:51 pm)
Humidity73.1 %100 % (1:17 am)37 % (8:51 pm)
Barometer29.19 in29.47 in (11:51 pm)28.86 in (9:51 am)
Wind Speed20.4 mph33.4 mph (10:44 am)
Wind Gust49.5 mph (10:44 am)
Weather ElementAverage
Visibility6.5 mi
Wind DirectionSW (220.6 °)

Weather ElementTotal
Precipitation0.28 in
Heating Degree Days23 (Base 65)
Averaged from 33 records on January 31, 2013
WEATHER CONDITIONS BREAKOUT
WIND DIRECTION BREAKOUT
WEATHER BY HOUR - JANUARY 31, 2013
[ °C ]   °F
Local TimeTemperatureDewpointHumidityBarometerVisibilityWind DirectionWind SpeedGust SpeedPrecipitationEventsConditions
1:05 AM52.0 °F51.1 °F97 %29.39 in1.8 miSouth (180°)13.8 mph18.4 mph0.01 inOvercast
1:17 AM51.1 °F51.1 °F100 %29.38 in1.2 miSouth (180°)10.4 mph20.7 mph0.01 inOvercast
1:30 AM51.1 °F50.0 °F96 %29.37 in0.8 miSouth (180°)13.8 mph0.01 inOvercast
1:38 AM51.1 °F50.0 °F96 %29.37 in1.5 miSouth (190°)15.0 mph23.0 mph0.01 inOvercast
1:42 AM51.1 °F51.1 °F100 %29.36 in3.0 miSouth (190°)13.8 mph23.0 mph0.01 inOvercast
1:51 AM51.1 °F51.1 °F100 %29.34 in6.0 miSouth (180°)16.1 mph24.2 mph0.01 inOvercast
2:18 AM52.0 °F51.1 °F97 %29.31 in6.0 miSouth (190°)13.8 mph26.5 mphOvercast
2:48 AM51.8 °F50.0 °F94 %29.27 in4.0 miSouth (180°)18.4 mph27.6 mphOvercast
2:51 AM51.1 °F50.0 °F96 %29.27 in4.0 miSouth (180°)16.1 mph27.6 mphOvercast
3:51 AM52.0 °F50.0 °F93 %29.20 in4.0 miSouth (180°)19.6 mph34.5 mph0.01 inRainLight Rain
4:51 AM52.0 °F50.0 °F93 %29.12 in2.0 miSouth (180°)20.7 mph32.2 mph0.01 inRainLight Rain
5:51 AM52.0 °F50.0 °F93 %29.06 in3.0 miSouth (180°)24.2 mph33.4 mph0.02 inRainLight Rain
6:51 AM53.1 °F51.1 °F93 %28.98 in3.0 miSouth (170°)23.0 mph36.8 mph0.07 inRainLight Rain
7:51 AM53.1 °F51.1 °F93 %28.98 in2.0 miSouth (190°)28.8 mph47.2 mph0.07 inRainLight Rain
8:09 AM54.0 °F52.0 °F93 %28.97 in3.0 miSouth (190°)20.7 mph31.1 mph0.01 inRainLight Rain
8:51 AM52.0 °F51.1 °F97 %28.93 in2.0 miSouth (180°)17.3 mph26.5 mph0.03 inRainLight Rain
9:51 AM52.0 °F50.0 °F93 %28.86 in6.0 miSouth (180°)20.7 mph34.5 mph0.00 inMostly Cloudy
10:35 AM51.1 °F42.1 °F71 %28.91 in10.0 miWest (270°)29.9 mph47.2 mph0.00 inOvercast
10:44 AM50.0 °F39.9 °F68 %28.92 in10.0 miWest (270°)33.4 mph49.5 mph0.00 inOvercast
10:51 AM48.9 °F39.9 °F71 %28.93 in10.0 miWest (270°)27.6 mph46.0 mph0.00 inMostly Cloudy
11:51 AM48.0 °F39.0 °F71 %28.96 in10.0 miWSW (250°)29.9 mph40.3 mph0.00 inScattered Clouds
12:51 PM48.0 °F32.0 °F54 %29.04 in10.0 miWSW (250°)23.0 mph36.8 mphMostly Cloudy
1:51 PM46.0 °F25.0 °F44 %29.08 in10.0 miWest (260°)26.5 mph39.1 mphPartly Cloudy
2:51 PM44.1 °F21.9 °F42 %29.13 in10.0 miWest (260°)27.6 mph41.4 mphPartly Cloudy
3:51 PM39.9 °F18.0 °F41 %29.21 in10.0 miWest (260°)25.3 mph38.0 mphPartly Cloudy
4:51 PM37.9 °F16.0 °F41 %29.26 in10.0 miWest (260°)21.9 mph42.6 mphScattered Clouds
5:51 PM37.0 °F15.1 °F41 %29.31 in10.0 miWest (260°)20.7 mph29.9 mphOvercast
6:51 PM36.0 °F12.9 °F39 %29.33 in10.0 miWSW (250°)17.3 mph28.8 mphMostly Cloudy
7:51 PM34.0 °F12.9 °F42 %29.37 in10.0 miWest (270°)21.9 mph39.1 mphMostly Cloudy
8:51 PM33.1 °F9.0 °F37 %29.39 in10.0 miWSW (250°)19.6 mph29.9 mphClear
9:51 PM32.0 °F9.0 °F38 %29.42 in10.0 miWSW (250°)13.8 mph21.9 mphClear
10:51 PM32.0 °F9.0 °F38 %29.45 in10.0 miWest (260°)13.8 mph26.5 mphScattered Clouds
11:51 PM30.0 °F14.0 °F51 %29.47 in10.0 miWNW (290°)15.0 mphScattered Clouds
Hourly data recorded from KPWM, located miles away from Portland - East End, Maine







STORIES FROM OUR PARTNERS